Weather History for Detroit Lakes, MN

Change the Weather History Date:

Sunday, January 20, 2013

  Actual Average Record
Temperature  
Mean Temperature -5 °F -  
Max Temperature 1 °F 18 °F 41 °F (1964)
Min Temperature -11 °F -4 °F -37 °F (1984)
Degree Days  
Heating Degree Days 70    
Moisture  
Dew Point -10 °F    
Average Humidity 80    
Maximum Humidity 92    
Minimum Humidity 70    
Precipitation  
Precipitation 0.00 in - - ()
Sea Level Pressure  
Sea Level Pressure 30.28 in    
Wind  
Wind Speed 10 mph (NW)    
Max Wind Speed 21 mph    
Max Gust Speed 28 mph    
Visibility 7 miles    
Events Snow    
Averages and records for this station are not official NWS values.
T = Trace of Precipitation, MM = Missing Value Source: NWS Daily Summary

Daily Weather History Graph

Daily Weather History Graph

Search for Another Location

Airport:

Trip Planner

Search our weather history database for the weather conditions in past years. The results will help you decide how hot, cold, wet, or windy it might be!

Date:

Astronomy

Jan. 20, 2013 Rise Set
Actual Time 8:00 AM CST 5:09 PM CST
Civil Twilight 7:26 AM CST 5:43 PM CST
Nautical Twilight 6:49 AM CST 6:20 PM CST
Astronomical Twilight 6:13 AM CST 6:56 PM CST
Moon 12:12 PM CST (1/20) 2:31 AM CST (1/20)
Length of Visible Light 10h 16m
Length of Day
9h 09m
Waxing Gibbous, 66% of the Moon is Illuminated
Jan 20
Waxing Gibbous
Jan 26
Full
Feb 3
Last Quarter
Feb 10
New
Feb 17
First Quarter

Hourly Weather History & Observations

Time (CST) Temp. Windchill Dew Point Humidity Pressure Visibility Wind Dir Wind Speed Gust Speed Precip Events Conditions
12:13 AM -5.8 °F -23.4 °F -9.4 °F 84% 30.26 in 3.0 mi NNW 10.4 mph - N/A Snow Light Snow
12:33 AM -5.8 °F -26.8 °F -9.4 °F 84% 30.27 in 4.0 mi NW 15.0 mph - N/A   Mostly Cloudy
12:52 AM -5.8 °F -22.4 °F -9.4 °F 84% 30.27 in 3.0 mi NW 9.2 mph - N/A Snow Light Snow
2:32 AM -5.8 °F -24.4 °F -9.4 °F 84% 30.29 in 5.0 mi NW 11.5 mph - N/A   Clear
2:53 AM -5.8 °F -21.2 °F -9.4 °F 84% 30.30 in 10.0 mi NW 8.1 mph - N/A   Clear
3:12 AM -5.8 °F -23.4 °F -9.4 °F 84% 30.31 in 10.0 mi NW 10.4 mph - N/A   Clear
3:32 AM -5.8 °F -21.2 °F -9.4 °F 84% 30.30 in 10.0 mi NW 8.1 mph - N/A   Clear
3:53 AM -5.8 °F -22.4 °F -9.4 °F 84% 30.29 in 10.0 mi NW 9.2 mph - N/A   Clear
4:12 AM -5.8 °F -18.4 °F -9.4 °F 84% 30.29 in 7.0 mi NNW 5.8 mph - N/A   Clear
4:32 AM -5.8 °F -18.4 °F -9.4 °F 84% 30.29 in 10.0 mi NNW 5.8 mph - N/A   Clear
4:53 AM -5.8 °F -14.5 °F -9.4 °F 84% 30.29 in 10.0 mi NNW 3.5 mph - N/A   Clear
5:12 AM -7.6 °F -16.5 °F -9.4 °F 92% 30.28 in 10.0 mi NNW 3.5 mph - N/A   Clear
5:32 AM -7.6 °F -16.5 °F -9.4 °F 92% 30.27 in 10.0 mi NNW 3.5 mph - N/A   Clear
5:53 AM -7.6 °F - -11.2 °F 84% 30.28 in 10.0 mi Calm Calm - N/A   Clear
6:13 AM -7.6 °F - -11.2 °F 84% 30.28 in 10.0 mi Calm Calm - N/A   Clear
6:32 AM -7.6 °F - -11.2 °F 84% 30.28 in 10.0 mi Calm Calm - N/A   Clear
6:53 AM -7.6 °F - -11.2 °F 84% 30.28 in 10.0 mi Calm Calm - N/A   Clear
7:13 AM -7.6 °F -16.5 °F -13.0 °F 77% 30.29 in 10.0 mi West 3.5 mph - N/A   Clear
7:32 AM -7.6 °F -18.8 °F -11.2 °F 84% 30.30 in 10.0 mi West 4.6 mph - N/A   Clear
7:53 AM -7.6 °F - -9.4 °F 92% 30.31 in 10.0 mi Calm Calm - N/A   Clear
8:12 AM -5.8 °F - -9.4 °F 84% 30.30 in 10.0 mi Calm Calm - N/A   Clear
8:33 AM -5.8 °F -16.7 °F -9.4 °F 84% 30.30 in 4.0 mi West 4.6 mph - N/A Snow Light Snow
9:33 AM -4.0 °F -19.0 °F -7.6 °F 85% 30.32 in 10.0 mi West 8.1 mph - N/A   Clear
9:53 AM -2.2 °F -16.8 °F -7.6 °F 78% 30.32 in 5.0 mi West 8.1 mph - N/A Snow Light Snow
10:12 AM -2.2 °F -18.9 °F -5.8 °F 85% 30.32 in 10.0 mi West 10.4 mph - N/A   Scattered Clouds
10:33 AM -0.4 °F -17.6 °F -5.8 °F 78% 30.32 in 5.0 mi West 11.5 mph - N/A   Haze
10:53 AM -0.4 °F -17.6 °F -5.8 °F 78% 30.32 in 5.0 mi WNW 11.5 mph 17.3 mph N/A   Haze
11:12 AM -0.4 °F -19.9 °F -5.8 °F 78% 30.31 in 4.0 mi WNW 15.0 mph 20.7 mph N/A   Haze
11:33 AM 1.4 °F -17.6 °F -4.0 °F 78% 30.30 in 3.0 mi NW 15.0 mph 19.6 mph N/A   Haze
11:53 AM 1.4 °F -16.1 °F -4.0 °F 78% 30.30 in 4.0 mi WNW 12.7 mph 20.7 mph N/A   Haze
12:12 PM 1.4 °F -17.6 °F -4.0 °F 78% 30.30 in 4.0 mi WNW 15.0 mph 20.7 mph N/A   Haze
12:33 PM 1.4 °F -17.6 °F -4.0 °F 78% 30.30 in 2.5 mi NW 15.0 mph 20.7 mph N/A   Haze
12:53 PM 1.4 °F -18.2 °F -4.0 °F 78% 30.29 in 1.5 mi NW 16.1 mph - N/A   Haze
1:12 PM 1.4 °F -17.6 °F -4.0 °F 78% 30.29 in 1.2 mi NW 15.0 mph 21.9 mph N/A   Haze
1:33 PM 1.4 °F -19.4 °F -5.8 °F 72% 30.29 in 4.0 mi NW 18.4 mph 24.2 mph N/A   Haze
1:53 PM 1.4 °F -18.8 °F -5.8 °F 72% 30.29 in 2.5 mi NW 17.3 mph 24.2 mph N/A   Haze
2:33 PM -0.4 °F -21.2 °F -5.8 °F 78% 30.27 in 1.2 mi NW 17.3 mph - N/A   Haze
2:53 PM -0.4 °F -20.5 °F -5.8 °F 78% 30.27 in 2.5 mi NW 16.1 mph - N/A   Haze
3:12 PM -0.4 °F -19.9 °F -7.6 °F 72% 30.28 in 4.0 mi NW 15.0 mph - N/A   Haze
4:13 PM -2.2 °F -22.9 °F -9.4 °F 71% 30.28 in 10.0 mi NW 16.1 mph 23.0 mph N/A   Scattered Clouds
4:33 PM -4.0 °F -24.5 °F -9.4 °F 78% 30.28 in 5.0 mi NNW 15.0 mph 19.6 mph N/A   Haze
4:52 PM -4.0 °F -23.0 °F -9.4 °F 78% 30.29 in 7.0 mi NW 12.7 mph - N/A   Scattered Clouds
5:13 PM -4.0 °F -19.0 °F -7.6 °F 85% 30.29 in 1.5 mi NW 8.1 mph - N/A   Overcast
5:33 PM -5.8 °F -24.4 °F -9.4 °F 84% 30.28 in 4.0 mi NW 11.5 mph - N/A   Mostly Cloudy
5:52 PM -5.8 °F -24.4 °F -9.4 °F 84% 30.28 in 10.0 mi NW 11.5 mph - N/A   Scattered Clouds
6:13 PM -5.8 °F -25.2 °F -9.4 °F 84% 30.27 in 10.0 mi NW 12.7 mph - N/A   Mostly Cloudy
6:33 PM -5.8 °F -23.4 °F -9.4 °F 84% 30.27 in 5.0 mi WNW 10.4 mph - N/A   Overcast
6:52 PM -5.8 °F -25.2 °F -9.4 °F 84% 30.27 in 7.0 mi WNW 12.7 mph 18.4 mph N/A   Mostly Cloudy
7:13 PM -5.8 °F -24.4 °F -11.2 °F 77% 30.27 in 10.0 mi NW 11.5 mph 18.4 mph N/A   Mostly Cloudy
7:32 PM -5.8 °F -25.2 °F -11.2 °F 77% 30.27 in 10.0 mi NW 12.7 mph - N/A   Overcast
7:53 PM -5.8 °F -27.5 °F -11.2 °F 77% 30.26 in 10.0 mi NW 16.1 mph 24.2 mph N/A   Overcast
8:13 PM -5.8 °F -29.4 °F -11.2 °F 77% 30.25 in 10.0 mi NW 19.6 mph 25.3 mph N/A   Mostly Cloudy
8:32 PM -7.6 °F -30.5 °F -13.0 °F 77% 30.25 in 10.0 mi NW 17.3 mph 25.3 mph N/A   Scattered Clouds
8:53 PM -7.6 °F -31.7 °F -13.0 °F 77% 30.25 in 10.0 mi NW 19.6 mph 26.5 mph N/A   Clear
9:13 PM -7.6 °F -29.1 °F -14.8 °F 71% 30.26 in 10.0 mi NW 15.0 mph 23.0 mph N/A   Scattered Clouds
9:32 PM -7.6 °F -27.5 °F -13.0 °F 77% 30.27 in 4.0 mi NW 12.7 mph - N/A   Haze
9:53 PM -9.4 °F -34.7 °F -14.8 °F 77% 30.26 in 3.0 mi NNW 20.7 mph 27.6 mph N/A   Haze
10:12 PM -9.4 °F -32.1 °F -16.6 °F 71% 30.27 in 4.0 mi NNW 16.1 mph 26.5 mph N/A   Haze
10:33 PM -11.2 °F -37.0 °F -18.4 °F 70% 30.27 in 10.0 mi NNW 20.7 mph 25.3 mph N/A   Scattered Clouds
10:53 PM -11.2 °F -35.8 °F -18.4 °F 70% 30.27 in 10.0 mi NNW 18.4 mph 25.3 mph N/A   Mostly Cloudy
11:12 PM -11.2 °F -33.7 °F -18.4 °F 70% 30.28 in 10.0 mi NW 15.0 mph 21.9 mph N/A   Overcast
11:33 PM -11.2 °F -34.4 °F -16.6 °F 77% 30.27 in 5.0 mi NNW 16.1 mph 19.6 mph N/A   Haze